Location: Camerons Lookout
(40.9833°S, 175.9333°E)
Time: 20:45:03
(UTC+00:00)

COSMOS 2455 - Pass Details

Date: 14 January 2026
Orbit: 899 x 909 km, 67.1° (Epoch: 14 February)

Event Time Altitude Azimuth Distance (km) Brightness Sun altitude
Exits shadow 11:37:34 71° 51° (NE) 962 2.7 -26.8°
Maximum altitude 11:37:44 71° 64° (ENE) 960 2.7 -26.8°
Drops below altitude 10° 11:43:45 10° 147° (SSE) 2,606 5.8 -27.0°
Sets 11:46:16 0° 148° (SSE) 3,552 6.6 -27.1°
